Location: Carson
(33.8314°N, 118.2820°W)
Time: 12:41:18
(UTC+00:00)

Okean O Rocket - Pass Details

Date: 23 November 2020
Orbit: 622 x 645 km, 98.2° (Epoch: 22 January)

Event Time Altitude Azimuth Distance (km) Brightness Sun altitude
Rises 13:52:11 0° 18° (NNE) 2,947 5.0 -8.8°
Reaches altitude 10° 13:54:27 10° 24° (NNE) 2,037 4.3 -8.3°
Maximum altitude 13:58:46 51° 100° (E) 807 2.7 -7.5°
Drops below altitude 10° 14:03:05 10° 177° (S) 2,031 4.5 -6.7°
Sets 14:05:20 0° 182° (S) 2,938 5.3 -6.2°
